Inversion Research: Below Escarpment

*Note: All times are displayed in the local standard time of the station location.
**Rain - Equipment is designed to accurately record liquid precipitation; under conditions when precipitation is not in liquid form, the data displayed may not properly reflect rainfall values.

Date Max Temp
(°C)
Min Temp
(°C)
Avg Temp
(°C)
Rain (mm) Avg RH (%)
Fri, Dec 14, 2018 7.1 1.5 4.2 - 94.6
Thu, Dec 13, 2018 6.7 -3.2 1.1 - 97.8
Wed, Dec 12, 2018 1.9 -4.3 -0.2 - 93.4
Tue, Dec 11, 2018 0.6 -1.2 -0.5 - 91.0
Mon, Dec 10, 2018 1.5 -1.6 -0.1 - 89.4
Sun, Dec 09, 2018 1.3 -7.2 -1.9 - 82.2
Sat, Dec 08, 2018 0.0 -5.3 -2.6 - 82.3
DateTime Avg Temp (°C) Rain (mm) RH (%)
Sat, Dec 15, 2018 18:00 3.1 - 99.7
Sat, Dec 15, 2018 17:00 3.4 - 98.4
Sat, Dec 15, 2018 16:00 3.9 - 96.5
Sat, Dec 15, 2018 15:00 4.2 - 94.9
Sat, Dec 15, 2018 14:00 4.4 - 93.8
Sat, Dec 15, 2018 13:00 4.6 - 93.4
Sat, Dec 15, 2018 12:00 4.2 - 98.3
Sat, Dec 15, 2018 11:00 3.5 - 99.9
Sat, Dec 15, 2018 10:00 2.8 - 99.9
Sat, Dec 15, 2018 09:00 1.9 - 99.9
Sat, Dec 15, 2018 08:00 1.5 - 99.9
Sat, Dec 15, 2018 07:00 2.1 - 99.9
Sat, Dec 15, 2018 06:00 2.0 - 99.9
Sat, Dec 15, 2018 05:00 0.5 - 99.9
Sat, Dec 15, 2018 04:00 0.8 - 99.9
Sat, Dec 15, 2018 03:00 2.2 - 99.9
Sat, Dec 15, 2018 02:00 3.8 - 99.9
Sat, Dec 15, 2018 01:00 4.0 - 99.4
Sat, Dec 15, 2018 00:00 4.9 - 99.5
Fri, Dec 14, 2018 23:00 4.8 - 99.6
Fri, Dec 14, 2018 22:00 4.8 - 99.1
Fri, Dec 14, 2018 21:00 4.2 - 99.9
Fri, Dec 14, 2018 20:00 4.1 - 99.4
Fri, Dec 14, 2018 19:00 3.5 - 97.7
Fri, Dec 14, 2018 18:00 4.2 - 88.2
Fri, Dec 14, 2018 17:00 6.5 - 80.3
Fri, Dec 14, 2018 16:00 6.7 - 85.7
Fri, Dec 14, 2018 15:00 6.3 - 92.0
Fri, Dec 14, 2018 14:00 5.9 - 93.3
Fri, Dec 14, 2018 13:00 5.2 - 98.7
Fri, Dec 14, 2018 12:00 4.6 - 99.9
Fri, Dec 14, 2018 11:00 4.8 - 97.2
Fri, Dec 14, 2018 10:00 5.1 - 87.8
Fri, Dec 14, 2018 09:00 4.4 - 90.8
Fri, Dec 14, 2018 08:00 3.9 - 90.9
Fri, Dec 14, 2018 07:00 3.6 - 91.1
Fri, Dec 14, 2018 06:00 3.4 - 90.8
Fri, Dec 14, 2018 05:00 2.7 - 95.8
Fri, Dec 14, 2018 04:00 2.2 - 96.1
Fri, Dec 14, 2018 03:00 2.2 - 97.8
Fri, Dec 14, 2018 02:00 2.0 - 99.9
Fri, Dec 14, 2018 01:00 2.0 - 99.8
Fri, Dec 14, 2018 00:00 0.9 - 99.9
Thu, Dec 13, 2018 23:00 0.2 - 99.9
Thu, Dec 13, 2018 22:00 -0.4 - 99.9
Thu, Dec 13, 2018 21:00 1.3 - 99.9
Thu, Dec 13, 2018 20:00 1.7 - 99.9
Thu, Dec 13, 2018 19:00 1.8 - 99.9


asterix Register now to access more data! asterix